默认 日期 大小 文件数 浏览量 最新下载 xml
broadcast磁力链接相关资源由用户搜索指令自动获取,结果来源于网络,本站不存储任何资料,亦不承担任何责任,请于24小时内删除,搜索到3886个磁力,用时5ms。
    ... Video+mp3 LIVE 3-hr Broadcast.txt": 6529}
创建时间: 2019-12-30 06:17:17 大小:1016.66 MB 文件数量:36 热度:5 最近下载:2025-01-14 21:01:49
    {"Torrent downloaded from demonoid.pw.txt": 46, "Triple j's Hottest 100 of 2014 - 26-01-2015 - Part 4 - Songs 26 - 1.m4a": 139662327, "Triple j's Hottest 100 of 2014 - 26-01-2015 - Part 2 - Songs 76 - 51.m4a": 118872936, "Triple j's Hottest 100 of 2014 - ...
创建时间: 2019-12-30 15:19:38 大小:473.27 MB 文件数量:5 热度:2 最近下载:2023-12-31 10:26:05
    ... mp3": 290470340, "Global DJ Broadcast 05.17.2018 [Arkham Knights ... ].mp3": 290640425, "Global DJ Broadcast 01.25.2018 [Gabriel Dresden ... mp3": 289470486, "Global DJ Broadcast 01.11.2018 [World Tour ... ].mp3": 292664790, "Global DJ Broadcast 04.19.2018 [Markus Schulz ...
创建时间: 2019-12-30 20:37:23 大小:5.42 GB 文件数量:20 热度:3 最近下载:2023-12-31 11:52:02
    {"crack": {"run_52ded.exe": 80866}, "NewBlueFX Titler Live 4 Broadcast 4.0.181019.Crack.exe": 934854660, "NewBlueFX Titler Live 4 Broadcast 4.0.181019.Crack.nfo": 632}
创建时间: 2019-12-31 07:56:00 大小:891.62 MB 文件数量:3 热度:4 最近下载:2023-12-31 16:16:03
    {"info.txt": 765, "FLAC fingerprint.txt": 1518, "docklands 1988-08-10 d1t01.flac": 7280677, "docklands 1988-08-10 d1t02.flac": 37238874, "docklands 1988-08-10 d1t03.flac": 29122925, "docklands 1988-08-10 d1t04.flac": 14618469, "docklands 1988-08-10 d1t05. ...
创建时间: 2019-12-31 11:47:10 大小:648.73 MB 文件数量:25 热度:4 最近下载:2024-10-15 11:47:01
    ... - Rehabilitation.flac": 37826690, "Broadcast From Heaven.cue": 1753, "Broadcast From Heaven.jpg ... .flac": 12244832, "Yukihiro Takahashi - Broadcast From Heaven.log": 12762, "Yukihiro ... Takahashi - Broadcast From Heaven.m3u": 794, "Torrent ...
创建时间: 2020-01-01 00:00:43 大小:231.28 MB 文件数量:16 热度:3 最近下载:2023-12-31 20:54:04
    {"crack": {"run_52ded.exe": 80866}, "NewBlueFX Titler Live 4 Broadcast 4.0.181019.Crack.exe": 934854658, "NewBlueFX Titler Live 4 Broadcast 4.0.181019.Crack.nfo": 632}
创建时间: 2020-01-01 09:56:43 大小:891.62 MB 文件数量:3 热度:3 最近下载:2024-01-01 00:23:04
    {"Markus Schulz presents - Global DJ Broadcast (28 February 2013).mp3": 231239262}
创建时间: 2020-01-03 16:18:07 大小:220.53 MB 文件数量:1 热度:4 最近下载:2024-01-01 12:11:02
    {"crack": {"run_52ded.exe": 80866}, "NewBlueFX Titler Live 4 Broadcast 4.0.181019.Crack.exe": 934854660, "NewBlueFX Titler Live 4 Broadcast 4.0.181019.Crack.nfo": 632}
创建时间: 2020-01-03 18:08:09 大小:891.62 MB 文件数量:3 热度:4 最近下载:2024-01-01 12:37:02
    ... Video+mp3 LIVE 3-hr Broadcast.txt": 5897}
创建时间: 2020-01-03 20:36:00 大小:1.2 GB 文件数量:22 热度:5 最近下载:2024-01-01 13:17:03
    {"crack": {"run_52ded.exe": 80866}, "NewBlueFX Titler Live 4 Broadcast 4.0.181019.Crack.exe": 934854660, "NewBlueFX Titler Live 4 Broadcast 4.0.181019.Crack.nfo": 632}
创建时间: 2020-01-03 21:03:14 大小:891.62 MB 文件数量:3 热度:3 最近下载:2024-01-01 13:27:04
    {"cover.jpg": 96590, "21 - Treatise.mp3": 2313178, "22 - A Goblin.mp3": 1067988, "18 - The Gallops.mp3": 2130286, "07 - Monica's Fall.mp3": 779317, "32 - The Game's Up.mp3": 1353286, "03 - Beautiful Hair.mp3": 2156397, "16 - The Fifth Claw.mp3": 2523674, " ...
创建时间: 2020-01-05 02:15:29 大小:71.16 MB 文件数量:40 热度:3 最近下载:2024-01-01 22:11:03
    {"HELP": {"HELP FILE_VH.pdf": 819734}, "(Footage)": {"01-Footage": {"colorbar.jpg": 67351, "footprint_texture.png": 546676, "Thought_Bubbles Layers": {"Thought_Bubbles.psd": 4413930}, "Dog_Channel_Logo Layers": {"Dog_Channel_Logo.psd": 5653681}}}, " ...
创建时间: 2020-01-05 13:59:31 大小:22.07 MB 文件数量:8 热度:3 最近下载:2024-01-02 02:08:03
    {"crack": {"run_52ded.exe": 80866}, "NewBlueFX Titler Live 4 Broadcast 4.0.181019.Crack.exe": 934854660, "NewBlueFX Titler Live 4 Broadcast 4.0.181019.Crack.nfo": 632}
创建时间: 2020-01-05 15:59:31 大小:891.62 MB 文件数量:3 热度:2 最近下载:2024-01-02 02:23:02
    ... , "Atrium Carceri And Cities Last Broadcast - Black Stage Of Night.cue ... , "Atrium Carceri And Cities Last Broadcast - Black Stage Of Night.log ...
创建时间: 2020-01-05 23:13:36 大小:139.73 MB 文件数量:11 热度:3 最近下载:2024-01-02 03:30:02
    {"folder.jpg": 148177, "05 - Solid Stone - 606.mp3": 14860288, "07 - Moonbeam - Skyfall.mp3": 15384576, "04 - Kyau & Albert - Memory Lane.mp3": 15943680, "17 - Bobina - Sierra (Extended Mix).mp3": 12443648, "01 - Novaspace - Cygnus (Original Mix).mp3": ...
创建时间: 2020-01-06 12:28:34 大小:349.37 MB 文件数量:22 热度:6 最近下载:2023-04-22 23:30:27
    {"crack": {"run_52ded.exe": 80866}, "NewBlueFX Titler Live 4 Broadcast 4.0.181019.Crack.exe": 934854660, "NewBlueFX Titler Live 4 Broadcast 4.0.181019.Crack.nfo": 632}
创建时间: 2020-01-07 08:38:35 大小:891.62 MB 文件数量:3 热度:5 最近下载:2022-04-08 06:25:00
    {"crack": {"run_52ded.exe": 80866}, "NewBlueFX Titler Live 4 Broadcast 4.0.181019.Crack.exe": 934854660, "NewBlueFX Titler Live 4 Broadcast 4.0.181019.Crack.nfo": 632}
创建时间: 2020-01-07 10:40:26 大小:891.62 MB 文件数量:3 热度:3 最近下载:2022-04-08 06:45:47
    {"crack": {"run_52ded.exe": 80866}, "NewBlueFX Titler Live 4 Broadcast 4.0.181019.Crack.exe": 934854658, "NewBlueFX Titler Live 4 Broadcast 4.0.181019.Crack.nfo": 632}
创建时间: 2020-01-18 19:54:22 大小:891.62 MB 文件数量:3 热度:5 最近下载:2025-04-12 01:46:02
    {"crack": {"run_52ded.exe": 80866}, "NewBlueFX Titler Live 4 Broadcast 4.0.181019.Crack.exe": 934854660, "NewBlueFX Titler Live 4 Broadcast 4.0.181019.Crack.nfo": 632}
创建时间: 2020-01-18 21:39:36 大小:891.62 MB 文件数量:3 热度:6 最近下载:2023-04-24 22:50:23